Total_Precipitation_Accumulation
0.00 0.00 0.00 0.00 0.00 0.00 0.00 0.00 0.00 0.00 0.00 0.00 0.00 0.00 0.02 0.04 0.03 0.13 0.01 0.00 0.00 0.00 0.00 0.01 0.02 0.05 0.08 0.13 0.31 0.83 1.25 1.57 1.28 0.93 0.79 1.04 0.99 0.94 1.14 1.48 1.30 0.95 1.11 1.25
0.00 0.00 0.00 0.00 0.00 0.00 0.00 0.00 0.00 0.00 0.00 0.00 0.00 0.00 0.01 0.02 0.02 0.05 0.02 0.01 0.00 0.00 0.01 0.02 0.04 0.10 0.14 0.27 0.38 0.42 0.43 0.62 0.31 0.24 0.35 0.72 0.93 1.00 1.03 1.28 1.12 1.00 1.10 1.30
0.00 0.02 0.00 0.00 0.00 0.00 0.00 0.00 0.00 0.00 0.00 0.00 0.00 0.00 0.00 0.01 0.03 0.02 0.03 0.01 0.00 0.00 0.00 0.02 0.09 0.13 0.15 0.15 0.18 0.07 0.08 0.36 0.36 0.35 0.49 0.77 1.19 1.21 1.28 1.53 1.40 1.17 1.41 1.37
0.01 0.00 0.00 0.00 0.00 0.00 0.01 0.00 0.00 0.00 0.01 0.02 0.00 0.02 0.02 0.00 0.01 0.01 0.02 0.01 0.01 0.01 0.01 0.01 0.01 0.02 0.03 0.02 0.05 0.05 0.11 0.28 0.58 0.66 0.66 0.70 0.95 0.91 1.00 1.08 1.35 1.25 1.26 1.39
0.03 0.00 0.00 0.00 0.00 0.00 0.03 0.00 0.00 0.00 0.00 0.02 0.01 0.03 0.01 0.00 0.00 0.00 0.01 0.02 0.00 0.01 0.01 0.00 0.01 0.02 0.04 0.11 0.17 0.31 0.42 0.48 0.59 0.71 0.81 0.78 0.88 0.95 1.02 1.15 1.44 1.59 1.17 0.98
0.00 0.00 0.00 0.01 0.00 0.00 0.00 0.00 0.00 0.00 0.02 0.07 0.01 0.07 0.02 0.01 0.01 0.02 0.00 0.00 0.00 0.02 0.01 0.01 0.02 0.02 0.14 0.34 0.44 0.54 0.54 0.56 0.65 0.73 0.83 0.88 0.88 0.95 0.90 1.13 1.52 2.24 2.23 1.66
0.00 0.00 0.00 0.00 0.00 0.01 0.04 0.09 0.26 0.30 0.12 0.09 0.05 0.09 0.05 0.02 0.02 0.05 0.01 0.01 0.00 0.01 0.01 0.02 0.02 0.07 0.22 0.46 0.60 0.72 0.74 0.66 0.74 0.86 0.94 0.97 1.04 1.00 1.03 1.06 1.20 1.71 2.78 2.82
0.00 0.02 0.00 0.00 0.01 0.02 0.05 0.19 0.65 0.73 0.26 0.26 0.18 0.13 0.11 0.08 0.04 0.03 0.03 0.02 0.02 0.01 0.01 0.01 0.06 0.11 0.19 0.50 0.65 0.83 0.95 0.96 0.81 0.84 1.07 1.17 1.22 1.44 1.45 1.50 1.52 1.50 1.77 2.44
0.05 0.03 0.01 0.00 0.00 0.03 0.08 0.14 0.16 0.51 0.40 0.46 0.17 0.06 0.10 0.11 0.13 0.09 0.06 0.03 0.04 0.04 0.05 0.11 0.21 0.30 0.38 0.49 0.47 0.56 0.81 0.94 1.20 1.21 1.17 1.26 1.36 1.38 1.41 1.63 1.77 2.16 2.20 2.35
0.12 0.10 0.02 0.02 0.06 0.09 0.05 0.06 0.19 0.68 0.85 0.40 0.11 0.08 0.20 0.34 0.35 0.30 0.21 0.15 0.14 0.13 0.16 0.36 0.48 0.42 0.40 0.43 0.39 0.42 0.50 0.83 1.27 1.51 1.40 1.25 1.43 1.54 1.38 1.47 1.34 1.40 1.57 2.01
0.07 0.22 0.09 0.01 0.12 0.24 0.28 0.31 0.39 0.57 0.78 0.83 0.35 0.16 0.22 0.35 0.45 0.42 0.48 0.47 0.34 0.26 0.37 0.57 0.92 0.87 0.64 0.50 0.44 0.46 0.56 0.52 0.51 0.51 0.70 1.07 1.38 1.25 1.19 1.08 1.21 1.36 1.50 1.69
0.09 0.28 0.16 0.02 0.02 0.07 0.18 0.50 1.09 1.66 1.41 0.91 0.79 0.32 0.16 0.13 0.21 0.43 1.18 1.14 0.69 0.51 0.79 0.87 1.21 1.60 1.13 0.80 0.62 0.43 0.53 0.54 0.71 0.86 0.76 0.74 0.90 0.98 1.06 1.20 1.23 1.45 1.75 1.89
0.34 0.78 0.66 0.15 0.13 0.22 0.33 0.42 0.74 1.20 1.33 0.84 1.19 0.38 0.16 0.20 0.39 0.48 0.94 0.91 0.75 0.55 0.89 1.30 1.46 1.73 1.69 1.30 1.00 0.62 0.51 0.39 0.41 0.61 1.01 0.97 1.10 0.90 1.19 1.31 1.57 1.84 2.02 2.26
0.46 0.60 0.54 0.42 0.19 0.25 0.28 0.21 0.27 0.75 1.23 0.57 0.47 0.19 0.33 0.35 0.41 0.79 0.62 0.48 0.62 0.60 0.67 0.94 1.13 1.45 1.63 1.53 1.39 0.95 0.95 0.79 0.67 0.64 0.67 0.63 0.77 1.05 1.28 1.29 1.40 1.81 2.03 1.92
0.48 0.68 0.17 0.09 0.04 0.08 0.16 0.16 0.13 0.33 0.49 0.87 0.32 0.23 0.32 0.33 0.45 0.62 0.39 0.45 0.31 0.67 0.81 0.61 0.64 0.59 0.58 0.65 0.68 0.76 0.66 0.65 0.72 0.68 0.69 0.60 0.73 1.13 1.34 1.66 1.67 1.42 1.16 1.08
0.87 1.22 0.62 0.43 0.05 0.04 0.11 0.11 0.09 0.06 0.07 0.15 0.17 0.18 0.05 0.04 0.10 0.09 0.10 0.11 0.21 0.37 0.28 0.29 0.22 0.23 0.27 0.33 0.39 0.52 0.61 0.53 0.49 0.50 0.46 0.63 0.78 0.69 0.77 0.74 0.67 0.73 0.87 0.91
1.13 1.02 0.94 0.70 0.09 0.23 0.57 0.10 0.05 0.16 0.24 0.20 0.22 0.17 0.03 0.04 0.08 0.15 0.13 0.11 0.12 0.12 0.07 0.15 0.21 0.17 0.27 0.29 0.31 0.44 0.57 0.57 0.41 0.35 0.35 0.40 0.41 0.42 0.38 0.33 0.36 0.43 0.49 0.54
0.91 0.87 1.21 0.87 0.44 1.04 0.35 0.04 0.04 0.20 0.14 0.07 0.11 0.07 0.04 0.04 0.17 0.14 0.07 0.06 0.08 0.07 0.07 0.06 0.09 0.06 0.13 0.26 0.44 0.52 0.55 0.60 0.58 0.39 0.29 0.23 0.22 0.26 0.34 0.49 0.59 0.60 0.59 0.49
0.46 0.76 1.31 1.13 0.78 0.43 0.12 0.09 0.13 0.19 0.34 0.22 0.18 0.12 0.06 0.05 0.20 0.31 0.11 0.09 0.10 0.07 0.05 0.01 0.02 0.01 0.02 0.10 0.38 0.76 0.90 0.72 0.70 0.57 0.50 0.40 0.41 0.48 0.63 0.79 0.88 0.81 0.77 0.86
0.32 0.51 1.32 1.28 1.30 0.65 0.24 0.16 0.07 0.20 0.73 0.74 0.41 0.37 0.32 0.21 0.40 0.44 0.16 0.12 0.07 0.03 0.01 0.01 0.01 0.01 0.03 0.09 0.27 0.48 0.88 1.04 0.86 0.87 0.81 0.83 0.78 0.79 0.90 0.87 0.78 0.78 0.87 0.92
0.89 1.44 1.87 1.37 1.80 0.94 0.24 0.08 0.11 0.63 1.21 0.89 0.86 1.07 0.91 0.94 1.06 0.63 0.37 0.15 0.04 0.00 0.00 0.01 0.02 0.02 0.02 0.07 0.23 0.57 0.84 1.30 1.38 1.19 1.29 1.23 1.15 1.12 1.02 0.95 0.91 0.94 1.00 1.04
1.54 1.59 1.25 1.39 1.75 1.12 0.27 0.43 0.94 1.03 0.60 0.77 1.28 1.52 1.29 1.10 0.80 0.45 0.14 0.06 0.02 0.00 0.01 0.01 0.01 0.03 0.03 0.06 0.10 0.30 0.74 1.49 2.07 1.88 1.54 1.49 1.34 1.06 0.96 0.88 0.88 0.88 0.87 0.94
1.37 1.31 1.34 1.07 0.87 0.51 0.38 0.65 0.83 0.71 0.76 0.87 0.77 0.81 0.57 0.44 0.21 0.07 0.04 0.01 0.00 0.00 0.00 0.01 0.02 0.04 0.08 0.11 0.11 0.20 0.33 0.64 1.66 2.48 2.42 1.91 1.41 1.28 1.25 1.21 1.16 1.06 0.97 0.92
0.97 0.99 1.56 1.17 0.67 0.37 0.54 0.41 0.54 0.80 0.73 0.46 0.43 0.42 0.38 0.26 0.16 0.11 0.04 0.03 0.01 0.01 0.02 0.03 0.04 0.04 0.03 0.04 0.09 0.21 0.35 0.57 0.99 1.58 2.16 2.48 2.47 1.72 1.55 1.72 1.64 1.73 1.71 1.45
1.07 1.03 1.08 1.45 1.51 0.97 0.62 0.58 0.60 0.64 0.62 0.62 0.35 0.26 0.28 0.37 0.32 0.27 0.24 0.12 0.06 0.08 0.11 0.09 0.10 0.10 0.07 0.10 0.15 0.23 0.40 0.52 0.61 0.88 1.36 1.69 2.44 2.36 1.52 1.41 1.58 1.48 1.80 1.86
0.35 0.46 0.94 1.35 1.35 1.65 1.17 1.31 1.03 0.88 0.50 0.32 0.19 0.23 0.18 0.12 0.14 0.18 0.24 0.35 0.34 0.30 0.31 0.25 0.18 0.15 0.16 0.21 0.22 0.27 0.28 0.31 0.38 0.66 1.12 1.39 1.69 2.36 2.29 1.72 2.03 2.37 2.41 2.35